CZ-6A DEB, 54428

Orbit data source: Space-Track

CZ-6A DEB, 54428 is space debris in SSO originally from a launch on Fri, 11 Nov 2022 UTC launched from the Taiyaun Space Center, China (TSC). Debris objects in space refer to the collection of defunct objects orbiting the Earth. Examples of debris include non-operational satellites, rocket bodies, and fragments generated from explosions, collisions, or faulty payload assembly.

Loading next visibility...
Identifier
54428, 2022-151FC
Orbit
SSO
Country
Flag of CNCN / PRC
Related business
Manufacturer
SAST
Mission
Spacecraft
Bus & Motor
Unknown
Mass
Unknown
Launch date (UTC)
2022-11-11 (4 years ago)
Launch vehicle
Unknown
Launch site
Taiyaun Space Center, China (TSC)
Object type
Payload
Rocket body
Debris
Shape & HBR
Unknown shape, 0.2 m
Radar Cross Section
Medium (>0.1 m² and <1 m²)

Expand to show TLE details & history
Last TLE update: 13 hours ago

TLE from 13 hours ago
0 CZ-6A DEB
1 54428U 22151FC  26209.16204314  .00000029  00000-0  83420-4 0  9996
2 54428  99.0955  76.3040 0465263 352.9796   6.4960 13.26968019179309
Epoch: 2026-07-28T03:53Z
TLE epoch observation values (Epoch: 2026-07-28T03:53:20.527Z)
Latitude
-0.00006°
Longitude
72.13325°
Altitude
812.777 km
Speed
7.617 km/s
True Right ascension
05h 05m 12s
True Declination
0° 00' 00"
Sunlit
Object was in daylight at epoch
Visualization orbit readout
Latitude
Unknown
Longitude
Unknown
Altitude
Unknown
Speed
Unknown
Apparent Right ascension
Unknown
Apparent Declination
Unknown
Sunlit
N/A
Visualization observer readout
Local Sidereal Time
06:26:52
Azimuth
Unknown
Elevation
Unknown
Doppler factor
Unknown
Orbital elements
Apogee altitude
1,506.028 km
Perigee altitude
805.002 km
Semi-major axis
7,533.652 km
Eccentricity
0.04653
Inclination
99.0955°
RAAN
76.304°
Arg. of periapsis
352.9796°
True anomaly
7.13606°
Mean anomaly
6.496°
Eccentric anomaly
6.8122°
Mean motion
3.31921 °/min
Orbital period
108.46 mins
BSTAR
0.00008342
Loading maneuver chart data...
Computing Atmospheric mass density...
Loading historical data...
Loading historical data...
Loading historical data...
Loading historical data...
Loading historical data...
Loading historical data...
Loading historical data...

Documentation

Showing up to 5 results
|